Precipitable_Water
0.14 0.09 0.07 0.08 0.07 0.07 0.07 0.07 0.06 0.06 0.07 0.08 0.08 0.08 0.10 0.16 0.15 0.16 0.17 0.18 0.21 0.23 0.26 0.28 0.29 0.29 0.33 0.38 0.39 0.42 0.52 0.67 0.87 1.03 1.19 1.39 1.35 1.70 1.65 1.71 1.66 1.57 1.58 1.53
0.13 0.09 0.09 0.10 0.08 0.07 0.07 0.07 0.05 0.06 0.08 0.09 0.08 0.10 0.15 0.17 0.18 0.18 0.18 0.18 0.19 0.22 0.24 0.27 0.29 0.29 0.27 0.33 0.37 0.40 0.47 0.58 0.78 0.95 1.15 1.34 1.37 1.65 1.66 1.71 1.65 1.60 1.58 1.53
0.12 0.11 0.11 0.09 0.07 0.07 0.07 0.06 0.05 0.06 0.07 0.12 0.11 0.09 0.14 0.18 0.19 0.19 0.19 0.19 0.19 0.21 0.22 0.26 0.29 0.29 0.27 0.30 0.36 0.39 0.44 0.52 0.66 0.89 1.06 1.26 1.33 1.44 1.63 1.62 1.55 1.57 1.58 1.57
0.14 0.12 0.11 0.09 0.07 0.08 0.06 0.06 0.07 0.07 0.07 0.06 0.12 0.07 0.12 0.13 0.15 0.16 0.17 0.18 0.18 0.21 0.22 0.26 0.28 0.29 0.27 0.27 0.34 0.39 0.43 0.46 0.57 0.80 0.96 1.12 1.19 1.29 1.50 1.54 1.62 1.59 1.54 1.50
0.15 0.12 0.11 0.09 0.07 0.10 0.07 0.08 0.08 0.09 0.09 0.09 0.12 0.09 0.11 0.12 0.10 0.13 0.17 0.17 0.18 0.20 0.22 0.25 0.28 0.30 0.30 0.27 0.29 0.37 0.41 0.42 0.53 0.69 0.85 1.05 1.20 1.27 1.41 1.56 1.64 1.53 1.48 1.49
0.17 0.17 0.14 0.11 0.10 0.11 0.11 0.08 0.10 0.10 0.10 0.07 0.09 0.09 0.08 0.09 0.10 0.12 0.14 0.16 0.17 0.19 0.21 0.24 0.27 0.30 0.30 0.29 0.29 0.33 0.38 0.39 0.48 0.61 0.82 0.97 1.14 1.20 1.27 1.44 1.50 1.46 1.42 1.38
0.17 0.17 0.16 0.14 0.10 0.10 0.10 0.07 0.05 0.04 0.05 0.03 0.08 0.07 0.10 0.11 0.11 0.11 0.11 0.14 0.16 0.17 0.20 0.22 0.25 0.28 0.30 0.29 0.29 0.32 0.36 0.35 0.41 0.55 0.71 0.86 1.02 1.19 1.21 1.31 1.46 1.48 1.39 1.32
0.15 0.13 0.15 0.15 0.11 0.10 0.10 0.08 0.05 0.03 0.03 0.03 0.07 0.06 0.08 0.12 0.12 0.11 0.11 0.12 0.15 0.16 0.19 0.20 0.23 0.26 0.29 0.30 0.30 0.32 0.36 0.33 0.35 0.51 0.66 0.88 0.94 1.14 1.20 1.29 1.41 1.54 1.44 1.34
0.15 0.14 0.18 0.16 0.14 0.13 0.09 0.07 0.10 0.06 0.06 0.05 0.06 0.07 0.10 0.11 0.09 0.08 0.09 0.11 0.13 0.14 0.17 0.19 0.21 0.24 0.27 0.30 0.31 0.32 0.34 0.34 0.33 0.45 0.58 0.71 0.88 1.10 1.13 1.27 1.42 1.52 1.58 1.47
0.19 0.13 0.17 0.16 0.16 0.16 0.12 0.11 0.07 0.07 0.04 0.03 0.03 0.04 0.06 0.05 0.04 0.05 0.07 0.10 0.12 0.13 0.15 0.18 0.19 0.22 0.25 0.30 0.31 0.34 0.35 0.35 0.33 0.42 0.56 0.63 0.78 1.00 1.12 1.19 1.23 1.41 1.58 1.52
0.20 0.17 0.15 0.16 0.15 0.12 0.12 0.10 0.09 0.08 0.07 0.03 0.03 0.03 0.07 0.05 0.05 0.05 0.07 0.10 0.11 0.12 0.14 0.17 0.18 0.20 0.24 0.28 0.30 0.32 0.35 0.36 0.34 0.39 0.51 0.60 0.70 0.91 1.08 1.15 1.19 1.23 1.39 1.53
0.21 0.17 0.14 0.15 0.17 0.16 0.14 0.12 0.10 0.07 0.06 0.06 0.05 0.03 0.09 0.07 0.07 0.06 0.05 0.08 0.10 0.11 0.13 0.15 0.17 0.19 0.21 0.25 0.30 0.31 0.34 0.36 0.35 0.36 0.48 0.57 0.67 0.79 1.00 1.09 1.16 1.24 1.31 1.49
0.21 0.17 0.13 0.14 0.15 0.15 0.13 0.13 0.12 0.10 0.08 0.05 0.05 0.03 0.07 0.07 0.06 0.05 0.05 0.06 0.08 0.11 0.12 0.14 0.15 0.17 0.19 0.22 0.28 0.30 0.33 0.35 0.36 0.37 0.42 0.53 0.61 0.70 0.90 1.01 1.11 1.21 1.29 1.34
0.23 0.19 0.15 0.13 0.14 0.14 0.13 0.14 0.13 0.11 0.08 0.07 0.06 0.04 0.05 0.05 0.05 0.05 0.05 0.05 0.06 0.09 0.10 0.12 0.13 0.15 0.17 0.20 0.24 0.30 0.31 0.35 0.36 0.38 0.41 0.48 0.55 0.64 0.81 0.93 1.06 1.15 1.21 1.26
0.24 0.19 0.19 0.18 0.17 0.16 0.15 0.13 0.13 0.12 0.11 0.08 0.06 0.05 0.06 0.06 0.05 0.05 0.06 0.06 0.06 0.07 0.08 0.10 0.11 0.13 0.16 0.18 0.22 0.28 0.31 0.33 0.37 0.37 0.41 0.46 0.53 0.62 0.72 0.89 0.99 1.07 1.15 1.22
0.25 0.19 0.19 0.18 0.18 0.16 0.14 0.14 0.13 0.14 0.13 0.11 0.09 0.07 0.08 0.08 0.08 0.06 0.06 0.06 0.05 0.05 0.06 0.09 0.10 0.12 0.14 0.16 0.19 0.24 0.30 0.31 0.37 0.38 0.40 0.44 0.50 0.58 0.67 0.76 0.90 1.01 1.05 1.11
0.22 0.21 0.18 0.16 0.17 0.16 0.14 0.15 0.15 0.14 0.14 0.12 0.09 0.09 0.10 0.08 0.07 0.06 0.06 0.06 0.06 0.05 0.06 0.08 0.09 0.11 0.13 0.15 0.17 0.21 0.27 0.30 0.35 0.38 0.40 0.43 0.45 0.52 0.64 0.71 0.81 0.87 0.95 1.04
0.22 0.22 0.20 0.16 0.17 0.12 0.17 0.17 0.16 0.15 0.15 0.14 0.13 0.12 0.10 0.09 0.09 0.07 0.07 0.07 0.06 0.05 0.06 0.06 0.08 0.10 0.12 0.14 0.16 0.18 0.24 0.28 0.33 0.38 0.40 0.43 0.43 0.46 0.58 0.66 0.74 0.79 0.87 0.93
0.25 0.22 0.19 0.15 0.15 0.17 0.17 0.16 0.16 0.15 0.14 0.15 0.14 0.13 0.12 0.11 0.09 0.07 0.08 0.08 0.06 0.06 0.06 0.07 0.07 0.09 0.11 0.13 0.15 0.17 0.20 0.25 0.30 0.36 0.39 0.42 0.44 0.45 0.52 0.61 0.67 0.73 0.79 0.83
0.26 0.24 0.21 0.18 0.14 0.13 0.17 0.17 0.18 0.17 0.14 0.16 0.15 0.13 0.12 0.10 0.07 0.07 0.08 0.07 0.07 0.07 0.06 0.07 0.07 0.08 0.09 0.11 0.14 0.16 0.18 0.21 0.26 0.31 0.36 0.39 0.43 0.46 0.49 0.55 0.63 0.67 0.73 0.76
0.23 0.23 0.20 0.18 0.16 0.18 0.21 0.20 0.19 0.15 0.16 0.17 0.16 0.15 0.14 0.12 0.10 0.09 0.09 0.07 0.07 0.07 0.06 0.07 0.07 0.08 0.08 0.10 0.12 0.13 0.16 0.18 0.23 0.28 0.32 0.36 0.39 0.42 0.44 0.49 0.57 0.64 0.67 0.71
0.23 0.21 0.20 0.19 0.17 0.15 0.22 0.20 0.17 0.20 0.20 0.19 0.18 0.17 0.15 0.15 0.13 0.11 0.10 0.08 0.07 0.07 0.07 0.07 0.07 0.07 0.08 0.09 0.10 0.11 0.13 0.16 0.21 0.24 0.28 0.32 0.35 0.38 0.42 0.45 0.51 0.56 0.61 0.65
0.23 0.25 0.22 0.21 0.20 0.24 0.24 0.23 0.23 0.22 0.22 0.22 0.21 0.20 0.18 0.16 0.14 0.12 0.11 0.09 0.08 0.08 0.08 0.07 0.07 0.07 0.08 0.09 0.09 0.09 0.12 0.14 0.17 0.21 0.24 0.28 0.29 0.34 0.37 0.41 0.45 0.50 0.55 0.58
0.27 0.27 0.23 0.22 0.24 0.25 0.25 0.25 0.25 0.25 0.24 0.24 0.24 0.23 0.21 0.17 0.15 0.13 0.12 0.11 0.09 0.09 0.08 0.08 0.07 0.07 0.07 0.09 0.09 0.09 0.10 0.13 0.14 0.16 0.19 0.23 0.26 0.29 0.33 0.36 0.40 0.45 0.48 0.51
0.27 0.26 0.25 0.24 0.26 0.28 0.28 0.28 0.27 0.26 0.26 0.25 0.25 0.24 0.22 0.19 0.17 0.14 0.12 0.11 0.10 0.09 0.09 0.09 0.08 0.08 0.08 0.09 0.09 0.10 0.10 0.11 0.12 0.14 0.16 0.19 0.22 0.25 0.28 0.32 0.35 0.38 0.44 0.48
0.28 0.26 0.24 0.25 0.29 0.29 0.29 0.28 0.24 0.23 0.22 0.23 0.24 0.24 0.24 0.21 0.18 0.15 0.13 0.12 0.11 0.10 0.10 0.09 0.09 0.08 0.08 0.09 0.09 0.10 0.10 0.10 0.10 0.11 0.14 0.15 0.18 0.21 0.25 0.27 0.30 0.34 0.36 0.41
Wind_Speed
19 24 27 30 32 31 34 36 39 41 39 35 28 23 19 16 16 17 18 19 21 24 28 34 38 42 44 43 43 44 44 44 41 40 42 39 38 54 52 50 49 48 46 45
18 22 26 29 31 33 34 36 38 37 39 29 22 17 10 12 13 15 15 17 19 21 24 29 34 39 42 43 43 43 44 44 41 42 38 38 39 36 50 50 49 49 47 47
17 21 26 28 30 34 36 33 40 36 37 27 18 13 9 10 13 14 15 15 17 19 22 25 30 35 40 42 42 43 44 43 42 41 40 41 39 35 49 50 49 50 50 47
18 20 26 28 29 33 33 38 36 33 31 22 16 13 11 11 13 16 16 16 16 16 19 23 27 32 36 41 42 42 43 43 42 40 40 40 41 41 31 50 50 51 51 49
17 21 25 26 29 31 30 40 31 28 27 24 16 13 11 12 15 19 18 17 15 14 15 19 24 28 33 37 40 41 42 41 41 40 41 37 37 45 29 50 50 50 51 50
18 18 21 24 30 26 36 35 26 25 24 21 18 15 12 12 15 18 18 17 14 12 13 16 21 25 30 34 37 39 40 40 40 41 40 40 38 38 37 42 54 51 51 50
18 16 20 25 26 24 34 33 26 27 25 22 23 18 10 13 15 15 17 17 13 11 11 13 18 22 26 30 34 36 38 39 40 39 40 40 38 40 42 30 53 53 53 52
17 19 20 24 23 24 28 28 24 22 24 26 25 16 15 14 13 16 17 15 13 10 9 11 15 19 24 27 31 33 35 37 39 39 37 38 41 37 40 38 37 56 54 52
18 17 17 20 22 25 25 26 24 24 22 23 22 21 17 15 18 19 18 15 13 10 9 9 12 18 21 25 28 31 33 35 38 39 39 38 36 32 39 39 38 42 54 52
15 18 16 18 19 22 22 22 25 24 25 24 24 22 18 21 22 20 17 14 12 10 9 9 11 15 19 23 27 29 31 33 37 38 39 39 39 36 36 37 42 36 49 52
14 14 17 17 17 19 21 22 23 22 21 21 24 23 20 22 23 21 17 14 13 11 10 9 10 13 18 21 24 28 29 31 34 37 38 37 41 38 36 39 42 43 44 53
13 15 17 17 17 19 20 20 20 20 22 21 20 23 24 24 24 22 19 15 13 11 11 9 10 12 16 19 21 25 27 29 32 36 37 37 39 39 35 35 38 37 43 46
13 14 18 17 18 18 18 19 19 20 21 20 20 24 26 27 26 25 21 16 13 13 11 10 10 11 14 18 20 23 26 28 30 34 37 37 36 38 37 34 33 32 37 44
13 14 13 14 16 21 18 17 17 17 19 20 20 27 32 30 29 26 23 18 14 13 13 12 11 11 13 16 19 22 25 27 29 32 35 36 36 37 36 34 35 33 33 41
13 14 15 18 22 22 20 18 13 14 17 18 22 26 32 32 29 26 23 20 15 13 13 12 12 12 12 15 18 20 23 25 27 30 32 34 35 36 38 35 33 33 28 33
13 15 18 18 16 15 17 16 14 14 18 21 23 27 28 29 28 27 25 21 18 14 13 13 13 13 13 14 17 20 22 25 26 27 30 33 34 36 35 39 35 31 30 33
12 15 17 14 18 22 16 15 12 15 16 18 19 22 25 28 28 28 26 23 19 16 13 13 14 14 14 14 16 19 22 23 26 26 29 31 33 34 35 35 36 36 32 31
13 14 14 15 18 13 13 14 18 16 18 16 22 24 25 26 27 27 26 24 21 18 14 13 15 16 15 15 15 18 21 22 24 26 27 29 31 33 34 34 33 33 33 30
14 14 15 12 15 18 14 13 16 17 21 17 19 24 25 25 26 29 26 24 22 20 16 13 14 16 17 16 16 17 20 21 24 24 26 27 30 31 33 32 33 32 32 31
13 12 12 13 13 13 13 14 18 19 19 18 20 23 25 24 25 26 25 25 25 22 19 15 14 16 18 18 17 17 19 21 23 23 25 27 29 30 31 32 31 32 33 32
13 13 12 12 13 16 13 13 15 18 19 20 21 23 24 24 24 25 25 26 25 24 21 18 15 14 17 19 19 19 19 21 24 25 24 27 28 30 31 32 32 31 33 33
12 10 11 10 12 14 11 14 14 18 21 22 23 23 24 25 26 26 26 25 26 25 23 20 17 15 16 18 20 21 21 21 24 26 27 27 28 29 30 31 32 32 33 32
14 12 12 11 13 16 15 17 19 20 21 23 24 24 24 25 25 26 27 26 25 25 25 22 19 17 16 17 20 22 23 23 25 26 28 28 30 30 31 32 32 32 32 32
16 13 13 14 15 18 20 22 21 21 22 23 24 24 25 25 26 26 27 26 25 26 25 24 21 19 17 17 18 22 24 25 26 28 28 30 30 32 32 33 33 32 32 33
16 12 13 16 23 23 21 21 20 21 21 23 24 25 25 25 26 26 26 26 26 26 26 25 23 21 19 18 19 20 24 26 27 28 30 31 31 32 34 35 36 35 34 32
13 13 12 15 16 18 21 20 20 20 22 24 25 26 26 26 27 27 27 27 27 27 27 26 25 23 21 19 19 21 22 25 28 29 30 30 31 32 33 35 37 38 38 37
Wind_Direction
334 347 346 344 345 341 337 334 332 336 334 329 316 306 300 300 304 297 290 275 263 254 244 235 230 227 226 226 226 225 227 228 228 227 225 229 229 197 198 199 199 199 200 200
332 346 344 343 344 345 340 337 342 339 338 332 327 320 315 310 307 303 299 284 270 260 247 236 230 226 224 225 225 225 226 226 227 224 228 221 225 196 199 199 200 200 201 201
341 341 344 344 346 347 344 350 344 340 342 336 329 314 310 316 317 316 305 294 280 262 251 239 231 226 223 223 224 225 226 226 225 225 225 221 217 211 207 201 202 201 201 202
335 340 346 345 348 348 346 350 344 343 350 348 349 336 326 316 326 330 316 308 291 271 254 240 232 227 223 223 223 224 225 224 224 225 223 224 225 214 210 202 202 201 203 204
337 340 344 346 348 346 344 344 342 348 352 349 350 336 334 331 326 329 328 315 299 277 261 243 233 227 223 222 222 223 224 223 224 224 224 222 221 219 226 203 203 202 204 205
332 340 344 347 343 348 348 350 351 355 357 357 350 340 333 334 326 328 332 327 308 285 265 246 233 226 222 221 221 222 224 223 222 222 222 222 224 222 215 213 205 206 205 205
331 337 346 349 347 352 355 357 359 2 3 354 350 343 331 326 332 332 333 333 321 296 269 250 234 227 223 222 222 222 224 223 222 222 223 224 223 222 221 221 206 207 204 206
340 340 346 347 354 352 354 5 7 355 358 353 354 354 336 326 332 334 331 327 327 310 278 254 239 228 224 223 222 223 224 224 221 221 222 221 221 221 222 218 210 208 207 207
340 338 346 351 353 356 353 3 359 358 355 360 359 354 354 344 331 327 324 324 322 318 295 267 246 231 227 225 224 224 225 224 221 222 222 221 221 223 221 221 217 208 207 207
338 335 344 350 352 354 2 360 1 1 2 358 358 356 358 346 338 331 322 316 317 312 307 278 254 236 230 229 226 225 225 225 223 222 222 223 223 225 224 219 217 226 211 209
337 344 341 348 350 354 356 358 360 2 4 1 358 356 355 351 344 337 323 311 308 307 301 289 265 243 234 232 229 227 227 227 224 223 223 224 224 226 227 223 225 226 224 214
338 338 335 338 345 352 355 354 359 3 354 356 358 354 358 353 347 342 331 313 299 295 293 289 274 254 240 235 233 229 229 228 226 224 223 224 224 224 227 224 224 225 214 213
336 333 337 343 351 351 349 351 355 360 360 353 4 352 354 351 349 346 340 322 302 288 288 284 282 264 248 240 235 232 230 229 228 226 224 224 225 223 224 227 222 223 220 218
331 326 324 330 333 341 342 348 349 356 358 354 347 346 348 352 350 348 346 334 309 286 283 278 278 273 257 245 240 235 232 230 229 227 224 224 225 223 225 226 222 226 226 219
327 323 320 317 318 323 322 329 343 342 346 353 350 350 344 348 351 350 347 341 323 301 285 276 273 273 266 251 243 237 233 231 230 228 225 225 223 224 223 222 221 224 224 213
325 326 328 326 324 334 327 332 338 332 343 336 335 337 346 350 356 354 351 349 338 316 292 276 271 273 271 258 247 241 235 233 230 229 226 225 224 224 223 224 224 224 223 219
318 329 333 327 339 332 332 339 334 343 349 353 353 345 354 355 355 355 354 351 343 331 305 280 269 269 269 264 252 244 238 233 229 229 226 225 224 224 224 224 225 225 226 223
317 324 324 324 334 343 339 348 351 338 341 335 341 343 347 348 352 354 354 353 348 339 322 291 269 264 265 265 258 247 238 233 229 229 227 225 224 224 223 225 223 223 224 226
311 320 322 326 330 321 336 345 350 351 342 342 338 342 346 353 355 354 358 358 353 345 331 310 278 264 263 262 258 251 239 233 230 230 227 226 224 224 223 224 224 224 222 220
310 315 317 321 325 327 336 343 349 352 347 349 347 346 349 352 354 353 356 356 353 348 340 324 300 271 262 259 256 251 242 236 231 231 228 225 225 223 223 223 222 222 219 220
315 311 300 303 312 317 323 336 344 353 342 343 342 342 344 347 346 348 351 351 350 348 342 331 314 289 265 258 254 249 244 238 231 231 229 226 225 224 224 223 222 221 220 223
305 302 305 308 313 314 331 338 333 333 339 340 339 338 339 341 342 343 344 345 346 346 344 336 323 302 280 260 252 248 243 241 234 231 231 228 225 224 224 223 223 223 224 224
306 290 300 291 304 314 306 315 315 324 329 331 334 334 336 337 338 339 340 341 342 343 342 339 328 313 290 271 254 248 245 241 236 234 231 230 229 227 226 225 225 226 226 224
300 293 293 312 317 306 301 304 310 314 319 324 329 330 331 332 334 335 336 338 339 339 339 337 331 318 301 278 262 251 246 242 240 237 234 232 231 229 227 225 225 225 226 227
293 291 292 297 302 309 312 309 310 312 319 323 326 327 327 328 329 330 332 333 335 335 335 334 330 321 307 289 269 258 248 243 241 238 236 234 232 231 229 228 227 226 227 227
285 286 286 300 309 312 315 316 318 319 319 319 322 325 325 325 325 327 328 329 331 331 332 331 327 321 309 294 276 260 253 245 241 238 236 235 233 232 231 230 230 230 230 231